[[{"header":{"parameterUnit":"m.s-1","parameterCategory":1,"la1":30.2991,"la2":30.254,"lo1":-89.0895,"lo2":-89.0444,"dy":0.0017,"dx":0.0017,"nx":28,"ny":28,"refTime":"2024-04-01T21:00:00:Z","depth":0,"parameterNumber":2,"parameterNumberName":"U-component_of_WINDS"},"data":[0,0,0,0,0,0,0,0,0,0,0,0,0,0,0,0,0,0,0,0,0,0,0,0,0,0,0,0,0,0,0,0,0,0,0,0,0,0,0,0,0,0,0,0,0,0,0,0,0,0,0,0,0,0,0,0,0,0,0.0965,0.0965,0,0.0923,0.0923,0.0922,0.0879,0.0878,0.0878,0.0877,0.0834,0.0834,0.0833,0,0,0,0,0,0,0,0,0,0,0,0,0,0.1007,0.1006,0.0965,0.0965,0.0964,0.0923,0.0923,0.0922,0.0879,0.0878,0.0878,0.0877,0.0835,0.0834,0.0833,0,0,0,0,0,0,0,0,0,0,0,0,0,0.0979,0.1006,0.0965,0.0938,0.0935,0.0923,0.0923,0.0922,0.0879,0.0878,0.0878,0.0877,0.0835,0.0834,0.0833,0.0846,0,0,0.083,0.083,0,0,0,0,0,0,0,0,0.0981,0.0978,0.0942,0.094,0.0936,0.0905,0.0922,0.0896,0.088,0.09,0.0877,0.0876,0.0859,0.0856,0.085,0.0844,0.0842,0.083,0.083,0.0829,0.0829,0,0,0,0,0,0,0,0.0983,0.0979,0.0949,0.0942,0.0938,0.0927,0.0922,0.0917,0.0885,0.0899,0.0895,0.0891,0.0857,0.0851,0.0849,0.0841,0.083,0.083,0.0829,0.0829,0.0841,0.0842,0,0,0,0,0,0,0.0989,0.0981,0.095,0.0947,0.0957,0.0927,0.0922,0.0916,0.0885,0.0879,0.0892,0.0889,0.0853,0.085,0.0847,0.0859,0.0829,0.0829,0.0828,0.084,0.0842,0.0842,0,0,0,0,0,0,0.099,0.0987,0.0952,0.0963,0.0958,0.0927,0.0922,0.0916,0.091,0.088,0.0874,0.0891,0.0852,0.0848,0.0846,0.0857,0.0828,0.0827,0.0839,0.0841,0.0842,0.0883,0,0,0,0,0,0,0.0992,0.0987,0.0992,0.0964,0.0958,0.0952,0.0922,0.0916,0.0908,0.0905,0.0878,0.0873,0.0851,0.0848,0.0845,0.0855,0.0827,0.0838,0.084,0.0842,0.088,0.0885,0.089,0,0,0,0,0,0.0993,0.1005,0.0993,0.0989,0.0963,0.0952,0.0949,0.0924,0.091,0.0914,0.0894,0.0874,0.0856,0.0848,0.0845,0.0854,0.0838,0.084,0.0841,0.0878,0.0884,0.089,0,0,0,0,0,0,0.1036,0.1001,0.0987,0.099,0.0975,0.0945,0.095,0.0931,0.0919,0.0916,0.0885,0.0879,0.0881,0.0867,0.0859,0.0864,0.0844,0.0845,0.0873,0.0878,0.0883,0.0886,0.0826,0,0,0,0,0,0.1046,0.104,0.101,0.1016,0.1009,0.0981,0.0975,0.0957,0.094,0.0933,0.0913,0.0897,0.0888,0.0882,0.0872,0.0878,0.0871,0.0883,0.0888,0.0892,0.0893,0.0895,0.0899,0.0849,0.0849,0.0849,0,0,0.1066,0.1046,0.1045,0.1024,0.101,0.1005,0.0976,0.0972,0.0967,0.0932,0.0929,0.0914,0.0894,0.0895,0.0895,0.0884,0.0906,0.0894,0.0898,0.0897,0.0897,0.0902,0.0906,0.085,0.085,0.085,0,0,0.11,0.1085,0.1088,0.1074,0.1053,0.1034,0.1035,0.1008,0.0996,0.0992,0.0966,0.096,0.0945,0.0931,0.0922,0.095,0.093,0.0948,0.0972,0.0974,0.0977,0.0981,0.099,0.0994,0.0949,0.0949,0.0949,0,0.1128,0.1119,0.1092,0.1089,0.1081,0.1048,0.1051,0.1039,0.1015,0.101,0.0998,0.0977,0.0961,0.0959,0.0966,0.096,0.0959,0.0951,0.0979,0.0982,0.0985,0.0994,0.0997,0.0952,0.0951,0.0951,0.0951,0,0.1154,0.1149,0.1154,0.1131,0.1123,0.1123,0.1095,0.109,0.1073,0.1055,0.1051,0.103,0.1015,0.1013,0.0996,0.1008,0.1002,0.0985,0.0964,0.0992,0.1,0.1003,0.0955,0.0954,0.0953,0.0953,0,0,0.1215,0.1177,0.1179,0.1168,0.1142,0.1137,0.1135,0.112,0.1116,0.1101,0.1098,0.1085,0.1069,0.1059,0.104,0.1041,0.1064,0.1024,0.1023,0.1032,0.1075,0.1088,0.1092,0.1051,0.1051,0.1052,0.1077,0,0.1244,0.1239,0.1214,0.1216,0.121,0.1179,0.1177,0.1161,0.1144,0.1136,0.1117,0.1108,0.1088,0.1081,0.1081,0.1061,0.1072,0.1059,0.1047,0.1047,0.1053,0.1096,0.111,0.1135,0.108,0.108,0.1081,0,0.1278,0.1265,0.1266,0.1239,0.1236,0.1234,0.1218,0.1211,0.1191,0.1179,0.1167,0.1145,0.1141,0.1121,0.1114,0.1106,0.1099,0.1089,0.1089,0.1087,0.1066,0.1095,0.1142,0.1146,0.1085,0.1085,0.1084,0,0.1321,0.1304,0.1302,0.1294,0.1262,0.1262,0.1249,0.1228,0.1221,0.1206,0.1201,0.1186,0.1178,0.1167,0.1142,0.113,0.1137,0.1116,0.1126,0.1127,0.1129,0.113,0.1176,0.1126,0.1126,0.1126,0.1126,0,0.1357,0.1359,0.1321,0.132,0.1321,0.1292,0.1294,0.1277,0.1259,0.1254,0.1226,0.1222,0.1189,0.1181,0.1161,0.1158,0.1154,0.1144,0.1138,0.1146,0.1147,0.1141,0.1139,0.1127,0.1126,0.1126,0.1126,0,0.1405,0.138,0.1376,0.1347,0.1339,0.1341,0.1316,0.1313,0.1294,0.1288,0.1285,0.1255,0.1244,0.1218,0.1199,0.1186,0.1188,0.1178,0.1195,0.1191,0.1203,0.1203,0.1247,0.1252,0.1199,0.12,0.12,0,0.143,0.143,0.1401,0.1395,0.1383,0.1375,0.1367,0.1338,0.1331,0.1308,0.1308,0.1294,0.1282,0.1265,0.1242,0.1228,0.1217,0.1234,0.1215,0.1222,0.1217,0.1217,0.1217,0.1238,0.1239,0.124,0.124,0,0.1475,0.1462,0.1452,0.1437,0.1428,0.1414,0.1399,0.1396,0.1364,0.1357,0.1345,0.1335,0.1316,0.1303,0.1285,0.1271,0.125,0.1246,0.1248,0.1256,0.1265,0.126,0.1206,0.1245,0.1245,0.1244,0.1244,0.1244,0.1512,0.1511,0.1489,0.1478,0.1464,0.1451,0.1447,0.1427,0.1417,0.1399,0.1383,0.1372,0.1351,0.1325,0.1312,0.1303,0.1293,0.1295,0.1296,0.1297,0.13,0.1267,0.13,0.13,0.13,0.1299,0.1299,0,0.1555,0.154,0.153,0.151,0.1501,0.1482,0.1464,0.1458,0.1449,0.1432,0.142,0.1406,0.1393,0.1368,0.1353,0.135,0.134,0.1347,0.1347,0.1344,0.1311,0.1311,0.1356,0.1356,0.1356,0.1356,0.1356,0.1356,0.1576,0.1574,0.1558,0.1548,0.1532,0.1522,0.1514,0.1501,0.1487,0.1472,0.1461,0.1445,0.1424,0.1407,0.1394,0.1387,0.1382,0.1392,0.1382,0.1352,0.1346,0.1341,0.1341,0.1392,0.1392,0.1416,0.1416,0.1416]},{"header":{"parameterUnit":"m.s-1","parameterCategory":1,"la1":30.2991,"la2":30.254,"lo1":-89.0895,"lo2":-89.0444,"dy":0.0017,"dx":0.0017,"nx":28,"ny":28,"refTime":"2024-04-01T21:00:00:Z","depth":0,"parameterNumber":3,"parameterNumberName":"V-component_of_WINDS"},"data":[0,0,0,0,0,0,0,0,0,0,0,0,0,0,0,0,0,0,0,0,0,0,0,0,0,0,0,0,0,0,0,0,0,0,0,0,0,0,0,0,0,0,0,0,0,0,0,0,0,0,0,0,0,0,0,0,0,0,4.1209,4.1211,0,4.1338,4.1339,4.1341,4.1342,4.134,4.1338,4.1337,4.1464,4.1469,4.1474,0,0,0,0,0,0,0,0,0,0,0,0,0,4.0961,4.0965,4.1209,4.1211,4.1212,4.1337,4.1339,4.1341,4.1342,4.134,4.1338,4.1336,4.1463,4.1469,4.1475,0,0,0,0,0,0,0,0,0,0,0,0,0,4.1077,4.0967,4.1209,4.1228,4.1231,4.1337,4.1339,4.1341,4.1342,4.134,4.1337,4.1335,4.1461,4.1468,4.1475,4.157,0,0,4.1498,4.1501,0,0,0,0,0,0,0,0,4.107,4.1086,4.1224,4.1227,4.123,4.1321,4.1299,4.1418,4.1343,4.13,4.1337,4.1334,4.1419,4.1429,4.1459,4.1576,4.1581,4.1499,4.1503,4.1506,4.1508,0,0,0,0,0,0,0,4.1062,4.108,4.126,4.1225,4.123,4.1229,4.1243,4.1321,4.1371,4.1303,4.1304,4.1319,4.142,4.1451,4.1462,4.1583,4.1498,4.1505,4.1509,4.1512,4.1785,4.1788,0,0,0,0,0,0,4.1051,4.1074,4.1256,4.1264,4.1143,4.1235,4.1251,4.1294,4.137,4.138,4.1321,4.1319,4.144,4.1453,4.1466,4.1583,4.1506,4.1513,4.1517,4.1783,4.1786,4.1789,0,0,0,0,0,0,4.1045,4.1067,4.1251,4.1169,4.1192,4.1242,4.1291,4.1298,4.133,4.1384,4.1392,4.1345,4.1439,4.1456,4.1545,4.1587,4.1516,4.1523,4.1779,4.1784,4.1787,4.1817,0,0,0,0,0,0,4.1038,4.1065,4.1102,4.117,4.1197,4.1328,4.1294,4.1303,4.1343,4.1341,4.1408,4.1417,4.1438,4.1534,4.1552,4.1596,4.1529,4.1776,4.1781,4.1786,4.1812,4.1821,4.1829,0,0,0,0,0,4.103,4.1104,4.1104,4.1126,4.1244,4.1331,4.1346,4.137,4.1347,4.1384,4.1419,4.1415,4.1579,4.1543,4.1563,4.161,4.1773,4.178,4.1786,4.1808,4.182,4.1829,0,0,0,0,0,0,4.1039,4.1114,4.1114,4.1213,4.1266,4.1331,4.1379,4.1381,4.144,4.1436,4.1462,4.1477,4.1566,4.1596,4.1554,4.1706,4.1673,4.1684,4.1683,4.1694,4.1703,4.1694,4.1535,0,0,0,0,0,4.1053,4.1118,4.1179,4.126,4.1287,4.1328,4.1367,4.1381,4.1436,4.1457,4.1499,4.1551,4.1615,4.1656,4.1717,4.1816,4.1831,4.1859,4.1867,4.1874,4.1883,4.1939,4.1952,4.181,4.181,4.181,0,0,4.1082,4.1131,4.117,4.1264,4.1306,4.1372,4.1347,4.1417,4.1467,4.1468,4.1555,4.1587,4.1647,4.1742,4.1785,4.177,4.1926,4.1882,4.1887,4.1893,4.1947,4.196,4.1972,4.1814,4.1813,4.1813,0,0,4.1169,4.1212,4.1286,4.1329,4.1394,4.1421,4.1439,4.1503,4.1525,4.1613,4.1616,4.1674,4.1783,4.1826,4.1862,4.1966,4.1964,4.1985,4.203,4.2084,4.2095,4.2105,4.2144,4.2157,4.1993,4.1994,4.1994,0,4.1197,4.1298,4.1323,4.1395,4.1436,4.1441,4.1515,4.1555,4.1636,4.1664,4.1646,4.1784,4.1825,4.193,4.1956,4.1984,4.2005,4.1978,4.2092,4.2102,4.2112,4.2149,4.2163,4.1996,4.1995,4.1995,4.1995,0,4.1329,4.1399,4.145,4.1531,4.1577,4.165,4.1685,4.1729,4.1739,4.1767,4.1857,4.1906,4.1978,4.2004,4.2013,4.2111,4.21,4.2086,4.2054,4.2127,4.2162,4.2177,4.1999,4.1998,4.1997,4.1997,0,0,4.1427,4.1521,4.1539,4.1576,4.1648,4.1702,4.1774,4.1846,4.1884,4.1939,4.2001,4.2093,4.2082,4.2123,4.2137,4.2184,4.2265,4.2165,4.2167,4.2183,4.2376,4.2387,4.2403,4.2263,4.2266,4.2268,4.2372,0,4.1523,4.1654,4.1679,4.1792,4.1857,4.1863,4.1926,4.1976,4.2005,4.2063,4.2094,4.216,4.2139,4.2164,4.221,4.2245,4.2304,4.2237,4.2321,4.2324,4.2308,4.2421,4.2433,4.2529,4.2386,4.2388,4.239,0,4.1653,4.1714,4.1834,4.1899,4.1927,4.1983,4.2052,4.2108,4.2165,4.2182,4.2228,4.2237,4.2312,4.2275,4.2378,4.2333,4.2368,4.239,4.2394,4.2404,4.2362,4.2436,4.2559,4.2574,4.2411,4.2409,4.2408,0,4.1714,4.1826,4.1913,4.1944,4.2021,4.206,4.2094,4.2149,4.2191,4.225,4.2277,4.2343,4.238,4.243,4.2457,4.2427,4.2559,4.2524,4.2576,4.2575,4.2604,4.2602,4.2737,4.2624,4.2624,4.2624,4.2623,0,4.182,4.1894,4.1942,4.1995,4.2078,4.2105,4.2186,4.2218,4.2267,4.2326,4.2334,4.2389,4.242,4.248,4.2501,4.2584,4.26,4.2616,4.2621,4.2616,4.2615,4.2641,4.2636,4.2627,4.2627,4.2626,4.2625,0,4.1903,4.1938,4.2034,4.2099,4.2117,4.2175,4.2231,4.2282,4.2311,4.2386,4.2405,4.2449,4.252,4.2551,4.2637,4.2651,4.2747,4.2746,4.2728,4.273,4.2781,4.2777,4.2939,4.2962,4.2832,4.2833,4.2834,0,4.1969,4.2027,4.2099,4.214,4.2175,4.2241,4.2285,4.2312,4.2357,4.2427,4.247,4.2542,4.26,4.2713,4.2752,4.2818,4.282,4.2872,4.283,4.2824,4.2823,4.282,4.2826,4.288,4.2882,4.2883,4.2883,0,4.2084,4.2098,4.2161,4.2231,4.2283,4.2339,4.2393,4.2426,4.2462,4.2511,4.2585,4.2631,4.272,4.2791,4.2859,4.2892,4.2895,4.2896,4.2912,4.2909,4.2897,4.2906,4.2751,4.2893,4.2892,4.2891,4.2891,4.289,4.2162,4.2214,4.2273,4.2343,4.2387,4.2438,4.249,4.2526,4.2588,4.2664,4.2676,4.2755,4.281,4.2903,4.2939,4.3,4.2987,4.301,4.3016,4.3021,4.3026,4.2886,4.3012,4.3012,4.3012,4.3012,4.3011,0,4.2278,4.2317,4.2381,4.2458,4.2513,4.2511,4.2571,4.2617,4.2686,4.2738,4.2797,4.2881,4.295,4.2994,4.3064,4.3104,4.3107,4.3121,4.312,4.3128,4.3032,4.3012,4.3118,4.3118,4.3118,4.3118,4.3118,4.3118,4.2345,4.2434,4.2455,4.2565,4.2602,4.2681,4.2716,4.2762,4.2804,4.2899,4.2957,4.2986,4.3035,4.3108,4.3171,4.3182,4.3208,4.3224,4.3235,4.3145,4.3134,4.3123,4.3105,4.3229,4.3229,4.3325,4.3326,4.3327]}]]